TimeCST,TemperatureF,Dew PointF,Humidity,Sea Level PressureIn,VisibilityMPH,Wind Direction,Wind SpeedMPH,Gust SpeedMPH,PrecipitationIn,Events,Conditions,WindDirDegrees,DateUTC
12:17 AM,19.4,15.8,86,30.19,10.0,Calm,Calm,-,N/A,,Clear,0,2013-01-10 06:17:00
12:37 AM,17.6,15.8,93,30.19,10.0,SE,3.5,-,N/A,,Clear,140,2013-01-10 06:37:00
12:56 AM,17.6,15.8,93,30.19,10.0,ESE,3.5,-,N/A,,Clear,120,2013-01-10 06:56:00
1:16 AM,19.4,15.8,86,30.18,10.0,SE,4.6,-,N/A,,Clear,140,2013-01-10 07:16:00
1:37 AM,21.2,15.8,80,30.18,10.0,SSE,8.1,-,N/A,,Clear,150,2013-01-10 07:37:00
1:57 AM,24.8,17.6,74,30.18,10.0,SSE,6.9,-,N/A,,Clear,150,2013-01-10 07:57:00
2:16 AM,24.8,15.8,69,30.18,10.0,SSE,6.9,-,N/A,,Clear,150,2013-01-10 08:16:00
2:37 AM,26.6,15.8,64,30.18,10.0,SSE,10.4,-,N/A,,Clear,160,2013-01-10 08:37:00
2:57 AM,26.6,15.8,64,30.17,10.0,SSE,9.2,-,N/A,,Clear,150,2013-01-10 08:57:00
3:16 AM,26.6,17.6,69,30.16,10.0,SSE,12.7,16.1,N/A,,Clear,150,2013-01-10 09:16:00
3:37 AM,28.4,17.6,64,30.15,10.0,South,9.2,17.3,N/A,,Clear,180,2013-01-10 09:37:00
3:57 AM,28.4,19.4,69,30.14,10.0,South,10.4,19.6,N/A,,Clear,170,2013-01-10 09:57:00
4:16 AM,26.6,19.4,74,30.13,10.0,SSE,9.2,17.3,N/A,,Clear,160,2013-01-10 10:16:00
4:37 AM,26.6,19.4,74,30.12,10.0,SSE,8.1,-,N/A,,Clear,160,2013-01-10 10:37:00
4:57 AM,26.6,19.4,74,30.11,10.0,SSE,9.2,-,N/A,,Clear,160,2013-01-10 10:57:00
5:16 AM,26.6,19.4,74,30.11,10.0,South,10.4,18.4,N/A,,Clear,170,2013-01-10 11:16:00
5:37 AM,26.6,19.4,74,30.09,10.0,SSE,9.2,-,N/A,,Clear,160,2013-01-10 11:37:00
5:56 AM,26.6,21.2,80,30.09,10.0,SSE,8.1,-,N/A,,Clear,160,2013-01-10 11:56:00
6:16 AM,28.4,21.2,74,30.09,10.0,SSE,8.1,-,N/A,,Clear,160,2013-01-10 12:16:00
6:37 AM,28.4,21.2,74,30.08,10.0,SSE,10.4,-,N/A,,Clear,160,2013-01-10 12:37:00
6:56 AM,28.4,21.2,74,30.08,10.0,SSE,9.2,-,N/A,,Clear,160,2013-01-10 12:56:00
7:17 AM,28.4,21.2,74,30.08,10.0,SSE,9.2,-,N/A,,Clear,160,2013-01-10 13:17:00
7:56 AM,28.4,21.2,74,30.07,10.0,SSE,10.4,-,N/A,,Clear,160,2013-01-10 13:56:00
8:17 AM,30.2,21.2,69,30.07,10.0,SSE,8.1,18.4,N/A,,Clear,160,2013-01-10 14:17:00
8:37 AM,30.2,23.0,75,30.07,10.0,SSE,9.2,17.3,N/A,,Clear,160,2013-01-10 14:37:00
8:56 AM,32.0,23.0,69,30.07,10.0,South,10.4,17.3,N/A,,Clear,170,2013-01-10 14:56:00
9:17 AM,33.8,24.8,70,30.06,10.0,South,11.5,18.4,N/A,,Clear,170,2013-01-10 15:17:00
9:56 AM,35.6,24.8,65,30.04,10.0,South,12.7,19.6,N/A,,Clear,170,2013-01-10 15:56:00
10:17 AM,37.4,24.8,60,30.03,10.0,South,11.5,19.6,N/A,,Clear,170,2013-01-10 16:17:00
10:37 AM,37.4,24.8,60,30.03,10.0,South,12.7,21.9,N/A,,Clear,180,2013-01-10 16:37:00
10:56 AM,39.2,24.8,56,30.02,10.0,South,10.4,21.9,N/A,,Clear,180,2013-01-10 16:56:00
11:17 AM,39.2,24.8,56,30.01,10.0,South,15.0,23.0,N/A,,Clear,170,2013-01-10 17:17:00
11:36 AM,39.2,24.8,56,30.00,10.0,South,10.4,25.3,N/A,,Clear,180,2013-01-10 17:36:00
11:57 AM,41.0,24.8,53,29.99,10.0,South,13.8,21.9,N/A,,Clear,170,2013-01-10 17:57:00
12:17 PM,42.8,23.0,46,29.98,10.0,South,16.1,26.5,N/A,,Clear,180,2013-01-10 18:17:00
12:36 PM,42.8,23.0,46,29.97,10.0,South,11.5,21.9,N/A,,Clear,180,2013-01-10 18:36:00
12:57 PM,42.8,23.0,46,29.97,10.0,South,10.4,21.9,N/A,,Clear,170,2013-01-10 18:57:00
1:36 PM,44.6,23.0,43,29.95,10.0,South,11.5,20.7,N/A,,Clear,170,2013-01-10 19:36:00
1:57 PM,42.8,23.0,46,29.95,10.0,SSE,12.7,18.4,N/A,,Clear,160,2013-01-10 19:57:00
2:16 PM,44.6,21.2,39,29.95,10.0,South,16.1,27.6,N/A,,Clear,190,2013-01-10 20:16:00
2:36 PM,42.8,21.2,42,29.95,10.0,SSE,12.7,21.9,N/A,,Clear,160,2013-01-10 20:36:00
2:57 PM,42.8,21.2,42,29.95,10.0,South,10.4,18.4,N/A,,Clear,170,2013-01-10 20:57:00
3:16 PM,41.0,21.2,45,29.95,10.0,South,6.9,-,N/A,,Clear,170,2013-01-10 21:16:00
3:37 PM,41.0,21.2,45,29.95,10.0,South,8.1,18.4,N/A,,Clear,180,2013-01-10 21:37:00
3:57 PM,41.0,21.2,45,29.95,10.0,SSE,8.1,18.4,N/A,,Clear,160,2013-01-10 21:57:00
4:16 PM,41.0,19.4,42,29.94,10.0,SSE,9.2,19.6,N/A,,Clear,160,2013-01-10 22:16:00
4:37 PM,41.0,17.6,39,29.94,10.0,SSE,13.8,18.4,N/A,,Clear,160,2013-01-10 22:37:00
4:56 PM,41.0,17.6,39,29.94,10.0,South,8.1,-,N/A,,Clear,170,2013-01-10 22:56:00
5:17 PM,39.2,17.6,42,29.92,10.0,SSE,9.2,-,N/A,,Clear,160,2013-01-10 23:17:00
5:37 PM,39.2,17.6,42,29.89,10.0,SSE,10.4,-,N/A,,Clear,150,2013-01-10 23:37:00
5:56 PM,39.2,17.6,42,29.88,10.0,SSE,10.4,16.1,N/A,,Clear,150,2013-01-10 23:56:00
6:16 PM,39.2,15.8,39,29.87,10.0,SSE,11.5,17.3,N/A,,Clear,160,2013-01-11 00:16:00
6:37 PM,39.2,15.8,39,29.86,10.0,SSE,8.1,16.1,N/A,,Clear,160,2013-01-11 00:37:00
6:56 PM,39.2,15.8,39,29.86,10.0,SSE,8.1,19.6,N/A,,Scattered Clouds,150,2013-01-11 00:56:00
7:16 PM,39.2,15.8,39,29.85,10.0,SSE,9.2,19.6,N/A,,Overcast,160,2013-01-11 01:16:00
7:37 PM,39.2,15.8,39,29.84,10.0,SSE,11.5,18.4,N/A,,Overcast,160,2013-01-11 01:37:00
7:56 PM,39.2,15.8,39,29.83,10.0,SSE,11.5,20.7,N/A,,Overcast,160,2013-01-11 01:56:00
8:17 PM,39.2,14.0,36,29.81,10.0,SSE,9.2,-,N/A,,Overcast,150,2013-01-11 02:17:00
8:37 PM,39.2,14.0,36,29.80,10.0,SSE,10.4,16.1,N/A,,Overcast,160,2013-01-11 02:37:00
8:56 PM,37.4,23.0,56,29.80,10.0,South,12.7,24.2,N/A,Rain,Rain,170,2013-01-11 02:56:00
9:17 PM,33.8,26.6,75,29.79,5.0,SE,6.9,-,N/A,Rain,Rain,140,2013-01-11 03:17:00
9:36 PM,33.8,28.4,81,29.77,5.0,SE,6.9,-,0.01,,Overcast,140,2013-01-11 03:36:00
9:57 PM,33.8,28.4,81,29.76,5.0,SE,5.8,-,N/A,,Overcast,140,2013-01-11 03:57:00
10:16 PM,33.8,30.2,87,29.75,5.0,SE,8.1,-,N/A,,Overcast,140,2013-01-11 04:16:00
10:37 PM,33.8,30.2,87,29.73,5.0,SSE,8.1,16.1,0.01,,Overcast,150,2013-01-11 04:37:00
10:57 PM,33.8,30.2,87,29.71,5.0,SE,9.2,-,N/A,,Overcast,140,2013-01-11 04:57:00
11:16 PM,33.8,30.2,87,29.70,5.0,SE,5.8,-,0.03,,Overcast,130,2013-01-11 05:16:00
11:57 PM,33.8,30.2,87,29.68,5.0,SSE,9.2,-,N/A,,Overcast,150,2013-01-11 05:57:00